Simultaneous Nadir Overpasses (SNOs) Predictions

Prediction of SNOs between AQUA and LANDSAT-8 Satellite Orbit:

Table of predicted SNOs for the next 14.0 days since TLE Epoch: 6/12/2024
Index Date (AQUA) Time (AQUA) Lat,Lon (AQUA) SZA (AQUA ) Date (LANDSAT-8) Time (LANDSAT-8) Lat,Lon (LANDSAT-8) SZA (LANDSAT-8 ) Distance(km) Time Diff (sec)
1 06/25/2024 19:25:11 73.08,-107.12 49.67 06/25/2024 19:24:06 73.05,-109.98 49.60 92.70 65
2 06/25/2024 20:14:37 -73.34, 60.01 130.09 06/25/2024 20:13:29 -73.31, 58.17 130.14 58.86 68
3 06/25/2024 21:04:01 73.41,-132.49 49.99 06/25/2024 21:02:52 73.42,-133.95 49.97 46.37 69
4 06/25/2024 21:53:27 -73.66, 34.63 129.77 06/25/2024 21:52:15 -73.67, 34.22 129.77 12.73 72
5 06/25/2024 22:42:51 73.74,-157.89 50.31 06/25/2024 22:41:39 73.73,-158.00 50.30 3.95 72
6 06/25/2024 23:32:13 -73.78, 9.68 129.65 06/25/2024 23:31:06 -73.77, 9.72 129.66 1.94 67
7 06/26/2024 00:21:35 73.76, 177.40 50.33 06/26/2024 00:20:31 73.78, 177.38 50.35 2.29 64
8 06/26/2024 01:10:56 -73.75, -14.92 129.68 06/26/2024 01:09:59 -73.77, -15.00 129.66 3.42 57
9 06/26/2024 02:00:19 73.77, 152.68 50.35 06/26/2024 01:59:24 73.78, 152.66 50.35 0.64 55
10 06/26/2024 02:49:40 -73.76, -39.64 129.66 06/26/2024 02:48:52 -73.77, -39.73 129.66 2.84 48
11 06/26/2024 03:39:03 73.79, 127.96 50.37 06/26/2024 03:38:17 73.77, 127.93 50.35 2.06 46



Historial Predications of SNOs between AQUA and LANDSAT-8
